Hourly Data Report for May 20, 2021

WESTERN HEAD
NOVA SCOTIA
Current Station Operator: ECCC - MSC

43°59'24.070" N
64°39'51.008" W
10.10 m
8206240
71411
WWE

Download Data

Hourly Data (May 2021)
Hourly Data Report for May 20, 2021
TIME
LST
Temp Definition
°C
Dew Point Definition
°C
Rel Hum Definition
%
Precip. Amount Definition
mm

Wind Dir Definition
10's deg

Wind Spd Definition
km/h
Visibility Definition
km
Stn Press Definition
kPa
Hmdx Definition


Wind Chill Definition


Weather Definition


00:00 9.3 8.1 92 0.0 36 6   102.83     LegendNANA
01:00 9.0 8.2 95 0.0 2 3   102.85     LegendNANA
02:00 8.7 8.1 96 0.0 4 5   102.86     LegendNANA
03:00 8.4 7.9 97 0.0 5 8   102.88     LegendNANA
04:00 8.3 7.9 97 0.0 3 6   102.96     LegendNANA
05:00 8.1 7.8 98 0.0 4 6   103.02     LegendNANA
06:00 8.5 8.1 98 0.0 3 5   103.09     LegendNANA
07:00 9.4 8.6 95 0.0 2 4   103.14     LegendNANA
08:00 10.6 8.4 86 0.0 3 6   103.18     LegendNANA
09:00 10.9 8.5 85 0.0 7 9   103.22     LegendNANA
10:00 12.2 9.1 81 0.0 8 10   103.25     LegendNANA
11:00 13.0 9.5 80 0.0 9 12   103.28     LegendNANA
12:00 12.6 9.2 80 0.0 8 13   103.28     LegendNANA
13:00 12.5 9.0 79 0.0 8 13   103.30     LegendNANA
14:00 12.0 8.5 79 0.0 9 10   103.30     LegendNANA
15:00 12.4 9.0 80 0.0 10 8   103.25     LegendNANA
16:00 10.3 8.0 86 0.0 13 6   103.23     LegendNANA
17:00 10.2 8.3 88 0.0 16 4   103.21     LegendNANA
18:00 10.4 8.2 87 0.0 12 3   103.20     LegendNANA
19:00 9.0 7.8 92 0.0 22 3   103.21     LegendNANA
20:00 5.7 5.3 97 0.0 24 5   103.21     LegendNANA
21:00 5.6 5.4 99 0.0 25 7   103.22     LegendNANA
22:00 5.8 5.7 99 0.0 19 5   103.22     LegendNANA
23:00 4.2 4.1 99 0.0 21 5   103.24     LegendNANA

Notes on Data Quality.

Legend

  • E = Estimated
  • M = Missing
  • NA = Not Available*
  • [empty] = Indicates an unobserved value
Date modified: